Flag for Canada Weather past 2 weeks in Edmonton, Alberta, Canada

Now
78 °F

Warm.


Feels Like: 79 °F
Forecast: 56 / 82 °F
Wind: 9 mph from Northwest

Location: Edmonton Municipal

Current Time: Jul 1, 2015 at 7:45:55 PM

Latest Report: Jul 1, 2015 at 7:00 PM


Visibility: N/A

Pressure: 30.03 "Hg

Humidity: 42%

Dew point: 53 °F

Location of EdmontonLocation

Historic Weather in Edmonton — Graph

°F

Edmonton temperature yesterday

Maximum temperature yesterday: 71 °F (at 4:00 PM)
Minimum temperature yesterday: 60 °F (at 6:00 AM)
Average temperature yesterday: 64 °F

Past Weeks' High & Low Weather Summary

 TemperatureHumidityPressure
High89 °F (Jun 28, 4:00 PM)97% (Jun 19, 8:00 PM)30.16 "Hg (Jun 19, 8:00 PM)
Low47 °F (Jun 20, 5:00 AM)18% (Jun 28, 7:00 PM)29.77 "Hg (Jun 19, 2:00 PM)
Average66 °F58%29.98 "Hg
* Reported Jun 16 6:00 PM — Jul 1 6:00 PM, Edmonton, Weather by CustomWeather, © 2015

Note: Actual official high and low records may vary slightly from our data, if they occured in-between our weather recording intervals... More about our weather records

Advertising

Edmonton weather history for previous 24 hours

 ConditionsComfort  
Time TempWeatherWind HumidityBarometerVisibility
6:00 PM
Wed, Jul 1
78 °FWarm.13 mph40%30.03 "HgN/A
5:00 PM79 °FWarm.10 mph44%30.02 "HgN/A
4:00 PM76 °FMild.13 mph49%30.03 "HgN/A
3:00 PM76 °FMild.10 mph50%30.04 "HgN/A
2:00 PM74 °FMild.10 mph57%30.05 "HgN/A
1:00 PM72 °FMild.8 mph60%30.04 "HgN/A
12:00 PM68 °FMild.9 mph69%30.04 "HgN/A
11:00 AM65 °FMild.8 mph75%30.04 "HgN/A
10:00 AM64 °FMild.8 mph78%30.04 "HgN/A
9:00 AM63 °FMild.7 mph85%30.03 "HgN/A
8:00 AM63 °FMild.7 mph87%30.02 "HgN/A
7:00 AM61 °FCool.3 mph93%30.01 "HgN/A
6:00 AM59 °FCool.6 mph90%30.00 "HgN/A
5:00 AM63 °FMild.12 mph89%29.99 "HgN/A
4:00 AM63 °FMild.8 mph88%29.97 "HgN/A
3:00 AM65 °FMild.6 mph85%29.97 "HgN/A
2:00 AM65 °FMild.3 mph85%29.97 "HgN/A
1:00 AM65 °FMild.2 mph83%29.98 "HgN/A
12:00 AM64 °FMild.No wind84%29.98 "HgN/A
11:00 PM
Tue, Jun 30
65 °FMild.3 mph82%29.98 "HgN/A
10:00 PM67 °FMild.3 mph76%29.97 "HgN/A
9:00 PM68 °FMild.3 mph71%29.97 "HgN/A
8:00 PM69 °FMild.6 mph72%29.97 "HgN/A
7:00 PM70 °FMild.5 mph67%29.96 "HgN/A
Weather by CustomWeather, © 2015

See weather overviewHow to use our weather pages